Regional Weather Roundup
Issued by NWS

Home | Current Version | Previous Version | Text Only | Print | Product List | Glossary Off
Versions: 1 2 3 4 5 6 7 8 9 10 11 12 13 14 15 16 17 18 19 20 21 22 23 24 25 26 27 28 29 30 31 32 33 34 35 36 37 38 39 40 41 42 43 44 45 46 47 48 49 50

000
ASUS43 KDTX 272101
RWRMI
MICHIGAN HOURLY REGIONAL WEATHER ROUNDUP
NATIONAL WEATHER SERVICE DETROIT/PONTIAC MI
400 PM EST MON FEB 27 2017

NOTE: "FAIR" INDICATES FEW OR NO CLOUDS BELOW 12,000 FEET WITH NO
SIGNIFICANT WEATHER AND/OR OBSTRUCTION TO VISIBILITY.

MIZ047>049-052>055-059>063-066>070-074>076-081>083-272200-
SOUTHEAST LOWER MICHIGAN

CITY           SKY/WX    TMP DP  RH WIND       PRES   REMARKS
ADRIAN         CLOUDY    47  34  60 W9        30.19F
ALMA           PTSUNNY   48  28  46 SW7       30.15F
ANN ARBOR      PTSUNNY   48  33  56 S12       30.18R
BAD AXE        PTSUNNY   44  19  36 CALM      30.18S
CARO           SUNNY     50  25  37 SW10      30.16S
DETROIT CITY   SUNNY     50  29  44 SW15      30.19R
DETROIT        PTSUNNY   49  32  52 S14       30.20R
FLINT          MOSUNNY   49  29  46 SW10      30.16S
GROSSE ILE     MOSUNNY   44  32  64 S8        30.20S
HILLSDALE      MOSUNNY   46  32  57 S7        30.15F
HOWELL         MOSUNNY   51  23  34 S6        30.15F

CITY           SKY/WX    TMP DP  RH WIND       PRES   REMARKS
JACKSON        PTSUNNY   49  29  46 S15       30.15S
LAMBERTVILLE   CLOUDY    50  34  55 SW3       30.19S
LANSING        MOSUNNY   51  26  37 SW9       30.15S
LAPEER         FAIR      49  28  43 SW7       30.16F
MASON          MOSUNNY   50  29  44 SW3       30.14F
MONROE         PTSUNNY   49  34  56 SW7       30.19S
MT. CLEMENS    MOSUNNY   47  32  55 S14       30.18S
PONTIAC        PTSUNNY   49  26  41 S9        30.15S
PORT HOPE        N/A     36  31  82 SE17      30.18S WCI  26
PORT HURON     CLOUDY    48  30  49 S10       30.19S
TRI CITIES     MOSUNNY   48  26  42 S9        30.16F
MIDLAND        FAIR      48  22  35 SW12      30.15S
TROY           PTSUNNY   51  22  32 SW7       30.19S
SAGINAW HB     SUNNY     48  25  40 SW7G16    30.16S
$$
MIZ043>046-050>051-056>058-064>065-071>073-077>080-272200-
SOUTHWEST LOWER MICHIGAN

CITY           SKY/WX    TMP DP  RH WIND       PRES   REMARKS
BATTLE CREEK   SUNNY     49  29  46 S9        30.14S
BENTON HARBOR  SUNNY     50  32  50 W8        30.12F
BIG RAPIDS     CLOUDY    46  23  39 S9        30.11F
COLDWATER      PTSUNNY   50  31  47 SW9       30.15S
FREMONT        FAIR      48  24  39 SW13      30.11F
HOLLAND        SUNNY     50  29  44 S12       30.13F
GRAND RAPIDS   MOSUNNY   50  27  40 SW15      30.12F
IONIA          PTSUNNY   49  26  40 S12       30.13F
KALAMAZOO      SUNNY     49  28  44 S9        30.15S
LUDINGTON      CLOUDY    41  29  63 SW7       30.11S
MARSHALL       PTSUNNY   51  29  43 S6        30.14S
MOUNT PLEASANT CLOUDY    47  22  37 S9        30.13F
MUSKEGON       MOSUNNY   47  29  49 S13       30.12F
SOUTH HAVEN    MOSUNNY   49  33  53 W5        30.12F
$$
MIZ016>042-272200-
NORTHERN LOWER MICHIGAN

CITY           SKY/WX    TMP DP  RH WIND       PRES   REMARKS
ALPENA         SUNNY     37  28  70 E10       30.16S WCI  30
BEAVER ISLAND  SUNNY     36  23  58 S8        30.11F WCI  29
BELLAIRE       SUNNY     43  21  42 W5        30.12S
CADILLAC       MOSUNNY   43  20  40 S7        30.09S
CHARLEVOIX     SUNNY     40  21  47 S8        30.14F WCI  35
FRANKFORT      SUNNY     40  29  64 S6        30.11F
GAYLORD        SUNNY     41  20  43 SW10      30.09F
GRAYLING       SUNNY     43  19  38 SW9       30.11F
HARBOR SPRINGS SUNNY     40  20  44 SW3       30.12F
HOUGHTON LAKE  SUNNY     43  22  43 S9        30.12S
MANISTEE       CLOUDY    41  29  62 W7        30.11F
OSCODA         SUNNY     42  23  47 S13       30.17S
PELLSTON       MOSUNNY   39  17  41 MISG      30.12F
ROGERS CITY    SUNNY     33  25  73 E8        30.16F WCI  26
TRAVERSE CITY  PTSUNNY   45  17  32 SW9       30.10F
$$
MIZ007>008-015-272200-
EASTERN UPPER MICHIGAN

CITY           SKY/WX    TMP DP  RH WIND       PRES   REMARKS
KINROSS        SUNNY     34  17  50 S9        30.12F WCI  27
MACKINAC ISLAN SUNNY     31  21  66 E8        30.13F WCI  24
NEWBERRY       CLOUDY    30  21  68 S15       30.09S WCI  19
S. S. MARIE    MOSUNNY   32  15  49 SE8       30.12F WCI  25
MUNISING         N/A     37  24  59 S15G24    30.03F WCI  28
$$
MIZ004>006-011>014-085-272200-
CENTRAL UPPER MICHIGAN

CITY           SKY/WX    TMP DP  RH WIND       PRES   REMARKS
MANISTIQUE     CLOUDY    32  29  88 S9        30.09S WCI  24
ESCANABA       SUNNY     37  24  59 S12G21    30.06F WCI  29
MENOMINEE      SUNNY     39  23  52 S14       30.07S WCI  31
SAWYER-GWINN   MOSUNNY   34  21  60 S10G18    29.99F WCI  26
$$
MIZ001>003-009>011-084-272200-
WESTERN UPPER MICHIGAN

CITY           SKY/WX    TMP DP  RH WIND       PRES   REMARKS
IRON MOUNTAIN  SUNNY     41  16  36 S12       29.97F
HOUGHTON       LGT SNOW  28  21  75 E3        29.96F
COPPER HARBOR    N/A     28  23  81 VRB3      30.00F
IRONWOOD       MOSUNNY   39  22  50 W7        29.92S WCI  34
$$

ABBREVIATIONS USED IN REMARKS
   TC - TEMPERATURE IN CELSIUS
  WCI - WIND CHILL INDEX
   HX - HEAT INDEX
  VSB - VISIBILITY




USA.gov is the U.S. government's official web portal to all federal, state and local government web resources and services.